Regional Weather Roundup
Issued by NWS

Home | Current Version | Previous Version | Graphics & Text | Print | Product List | Glossary On
Versions: 1 2 3 4 5 6 7 8 9 10 11 12 13 14 15 16 17 18 19 20 21 22 23 24 25 26 27 28 29 30 31 32 33 34 35 36 37 38 39 40 41 42 43 44 45 46 47 48 49 50
494
ASUS45 KBOU 250907
RWRCO

WEATHER ROUNDUP FOR COLORADO
NATIONAL WEATHER SERVICE DENVER/BOULDER CO
300 AM MDT THU MAY 25 2017

NOTE: "FAIR" INDICATES FEW OR NO CLOUDS BELOW 12000 FEET WITH NO
SIGNIFICANT WEATHER AND/OR OBSTRUCTIONS TO VISIBILITY.

COZ001>005-013-030-031-251000-
...NORTHWEST COLORADO...

CITY           SKY/WX    TMP DP  RH WIND       PRES   REMARKS
CRAIG          FAIR      56  40  55 SE6       29.68F
HAYDEN         MOCLDY    55  36  47 CALM      29.70F
MEEKER         FAIR      54  39  57 NE8       29.69F
RABBIT EARS PA LGT RAIN  39  34  81 SW12G25   29.91R
STEAMBOAT SPGS CLOUDY    54  39  57 SE6       29.72F
WALDEN           N/A     50  37  62 W6        29.82R
$$

COZ006>008-011-251000-
...WEST CENTRAL VALLEYS...

CITY           SKY/WX    TMP DP  RH WIND       PRES   REMARKS
GRAND JUNCTION FAIR      64  34  32 E3        29.60S
MONTROSE       FAIR      58  30  34 SE8       29.70F
EAGLE          FAIR      61  35  37 VRB3      29.74F
RIFLE          FAIR      63  36  36 SE7       29.64F
DELTA          NOT AVBL
NUCLA          NOT AVBL
$$

COZ017>023-064>068-251000-
...SOUTHWEST COLORADO...

CITY           SKY/WX    TMP DP  RH WIND       PRES   REMARKS
DURANGO        FAIR      48  29  47 N6        29.82F
CORTEZ         FAIR      63  27  25 S14       29.76F
PAGOSA SPRINGS NOT AVBL
TELLURIDE      NOT AVBL
WOLF CREEK PAS MOCLDY    37  21  52 SW14G25   30.15F
$$

COZ009-010-012-014-032>034-037-058>063-251000-
...CENTRAL COLORADO...

CITY           SKY/WX    TMP DP  RH WIND       PRES   REMARKS
ASPEN          CLOUDY    55  33  43 CALM      29.78S
BUENA VISTA    NOT AVBL
COPPER MTN     MOCLDY    45  23  42 W23       30.01F
BERTHOUD PASS  FAIR      34  23  64 W38G58    29.97F WCI  19
COTTONWOOD PAS FAIR      52  23  32 SW3       29.91S
GUNNISON       FAIR      44  32  62 NW3       29.82S
KREMMLING      RAIN      61  37  41 W10G23    29.79R
LEADVILLE      CLOUDY    48  24  39 S6        29.89F
MONARCH PASS   MOCLDY    41  19  42 W37G54    30.13F
SALIDA         NOT AVBL
SUNLIGHT       MOCLDY    41  28  60 SW12G20   29.97F
WILKERSON PASS FAIR      41  25  52 SW12G24   30.00F
$$

COZ069>075-251000-
...SAN LUIS VALLEY/SANGRE DE CRISTO MOUNTAINS...

CITY           SKY/WX    TMP DP  RH WIND       PRES   REMARKS
ALAMOSA        FAIR      44  30  57 S9        29.83S
DEL NORTE      FAIR      43  24  47 W13       29.86S
LA VETA PASS   FAIR      45  19  36 S17G31    30.07S
SAGUACHE       FAIR      39  25  56 N7        29.85S
$$

COZ035-036-038>040-251000-
...NORTHERN COLORADO FRONT RANGE...

CITY           SKY/WX    TMP DP  RH WIND       PRES   REMARKS
DENVER INTL AP MOCLDY    61  35  37 SW17      29.56F
DMNS CITY PARK   N/A     62  35  35 E10       29.58S
AURORA         PTCLDY    61  34  35 SW14      29.60F
FRONT RANGE AP FAIR      63  36  36 SW14      29.59F
ERIE MUNI ARPT FAIR      65  35  32 S8        29.56R
BOULDER MUN AP FAIR      68  32  26 SW3       29.56S
CENTENNIAL     FAIR      61  33  35 SW6       29.62F
BROOMFIELD     FAIR      64  34  32 S13       29.59F
FORT COLLINS   FAIR      59  42  53 W14       29.54S
LONGMONT       FAIR      65  35  31 SW3       29.57R
$$

COZ041-046-047-076>085-087-088-251000-
...PIKES PEAK/PALMER DIVIDE AND SOUTHERN FOOTHILLS...

CITY           SKY/WX    TMP DP  RH WIND       PRES   REMARKS
COLO. SPRINGS  FAIR      54  35  48 NE6       29.65F
A. F. ACADEMY  FAIR      54  34  47 E3        29.67S
SCHRIEVER AFB  FAIR      57  34  42 N5        29.66F
CHEYENNE MTN   FAIR      58  32  36 CALM      29.64F
ELLICOTT       FAIR     N/A N/A N/A CALM      29.64F
FALCON         NOT AVBL
FORT CARSON    FAIR      53  40  61 CALM      29.62F
LIMON          FAIR      41  40  96 CALM      29.62S
MONUMENT HILL  FAIR      54  34  47 W9        29.72F
CANON CITY     NOT AVBL
WALSENBURG     FAIR      54  36  50 SW12      29.69S
TRINIDAD       FAIR      59  30  33 SW16      29.68R
$$

COZ042>045-048>051-090-091-251000-
...NORTHEAST COLORADO...

CITY           SKY/WX    TMP DP  RH WIND       PRES   REMARKS
GREELEY ARPT   FAIR      54  45  71 CALM      29.53R
AKRON          FAIR      61  41  47 SW20      29.51F
BURLINGTON     FAIR      52  46  80 S17       29.54F
WRAY           NOT AVBL
YUMA           FAIR      54  43  66 S14       29.49F
STERLING       FAIR      57  46  67 W8        29.48R
HOLYOKE        NOT AVBL
FORT MORGAN    NOT AVBL
$$

COZ086-089-092>099-251000-
...SOUTHEAST COLORADO...

CITY           SKY/WX    TMP DP  RH WIND       PRES   REMARKS
PUEBLO         FAIR      50  43  77 CALM      29.57F
LA JUNTA       FAIR      56  46  69 W10       29.55S
LAMAR          FAIR      48  45  89 E7        29.51F
SPRINGFIELD      N/A     48  41  76 CALM      29.58F
$$




USA.gov is the U.S. government's official web portal to all federal, state and local government web resources and services.